Вернуться в каталог

STARLINK-35730

АктивенСвязьVLEO
NORAD 66273·PAYLOAD·🇺🇸 United States

Запущен Oct 31, 2025 с Vandenberg Space Force Base

Loading…

Ближайшие Пролёты (ближайшие 24 часа)

TLE

СвежийSource: CelesTrak SupGP

Эпоха: Sep 14, 2026, 14:50 UTC

1 66273C 25247J   26257.61854167 -.00080919  00000+0 -23913-2 0  2579
2 66273  53.1608  29.4352 0001256  85.2197 227.4547 15.34424787    17

Отслеживайте STARLINK-35730 в реальном времени с AllMySat

Download on the App Store